This is the latest recevied weather packets stored in our database for station/object K7KAZ. If no packets are shown the sender has not sent any weather packets the latest 10 day(s).
| Time | Temp. | Humidity | Pressure | Rain* | Wind** | Luminosity | Snow |
|---|---|---|---|---|---|---|---|
| 1777573114 | 28.33° C | 17% | 1012.2 hPa | 0 mm | - | 750 W/m² | - |
| 1777572811 | 28.33° C | 17% | 1012.2 hPa | 0 mm | - | 738 W/m² | - |
| 1777572507 | 27.78° C | 17% | 1012.2 hPa | 0 mm | - | 761 W/m² | - |
| 1777572202 | 27.22° C | 17% | 1012.3 hPa | 0 mm | - | 727 W/m² | - |
| 1777571898 | 27.78° C | 17% | 1012.5 hPa | 0 mm | - | 736 W/m² | - |
| 1777571593 | 27.22° C | 18% | 1012.4 hPa | 0 mm | - | 739 W/m² | - |
| 1777571291 | 27.78° C | 17% | 1012.4 hPa | 0 mm | - | 765 W/m² | - |
| 1777570986 | 27.78° C | 17% | 1012.3 hPa | 0 mm | - | 716 W/m² | - |
| 1777570683 | 27.78° C | 18% | 1012.4 hPa | 0 mm | - | 788 W/m² | - |
| 1777570379 | 27.22° C | 18% | 1012.5 hPa | 0 mm | - | 717 W/m² | - |
| 1777570074 | 26.67° C | 18% | 1012.6 hPa | 0 mm | - | 714 W/m² | - |
| 1777569771 | 26.67° C | 18% | 1012.6 hPa | 0 mm | - | 832 W/m² | - |
| 1777569466 | 26.67° C | 18% | 1012.7 hPa | 0 mm | - | 793 W/m² | - |
| 1777569164 | 26.67° C | 18% | 1012.9 hPa | 0 mm | - | 798 W/m² | - |
| 1777568860 | 26.11° C | 19% | 1012.6 hPa | 0 mm | - | 848 W/m² | - |
| 1777568557 | 26.11° C | 19% | 1012.5 hPa | 0 mm | - | 789 W/m² | - |
| 1777568254 | 26.11° C | 19% | 1012.6 hPa | 0 mm | - | 865 W/m² | - |
| 1777567951 | 26.67° C | 19% | 1012.8 hPa | 0 mm | - | 691 W/m² | - |
| 1777567647 | 26.11° C | 20% | 1012.5 hPa | 0 mm | - | 739 W/m² | - |
| 1777567345 | 26.67° C | 20% | 1012.8 hPa | 0 mm | - | 647 W/m² | - |
| 1777567043 | 25° C | 20% | 1012.9 hPa | 0 mm | - | 648 W/m² | - |
| 1777566740 | 25.56° C | 20% | 1012.9 hPa | 0 mm | - | 664 W/m² | - |
| 1777566438 | 25° C | 21% | 1013.2 hPa | 0 mm | - | 668 W/m² | - |
| 1777566135 | 25° C | 21% | 1013 hPa | 0 mm | - | 524 W/m² | - |
| 1777565830 | 25.56° C | 21% | 1013.3 hPa | 0 mm | - | 648 W/m² | - |
* Rain latest hour (hover to see other rain measurements)
** Current wind speed in m/s (hover to see current wind gust speed)